QPF
0.00 0.00 0.00 0.00 0.00 0.00 0.00 0.00 0.00 0.00 0.00 0.00 0.00 0.00 0.00 0.00 0.00 0.00 0.00 0.00 0.00 0.00
0.00 0.00 0.00 0.00 0.00 0.00 0.00 0.00 0.00 0.00 0.00 0.00 0.00 0.00 0.00 0.00 0.00 0.00 0.00 0.00 0.00 0.00
0.00 0.00 0.00 0.00 0.00 0.00 0.00 0.00 0.00 0.00 0.00 0.00 0.00 0.00 0.00 0.00 0.00 0.00 0.00 0.00 0.00 0.00
0.00 0.00 0.00 0.00 0.00 0.00 0.00 0.00 0.00 0.00 0.00 0.00 0.00 0.00 0.00 0.00 0.00 0.00 0.00 0.00 0.00 0.00
0.00 0.00 0.00 0.00 0.00 0.00 0.00 0.00 0.00 0.00 0.00 0.00 0.00 0.00 0.00 0.00 0.00 0.00 0.00 0.00 0.00 0.00
0.00 0.00 0.00 0.00 0.00 0.00 0.00 0.00 0.00 0.00 0.00 0.00 0.00 0.00 0.00 0.00 0.00 0.00 0.00 0.00 0.00 0.00
0.01 0.01 0.02 0.01 0.00 0.00 0.00 0.01 0.01 0.01 0.00 0.00 0.00 0.00 0.00 0.00 0.00 0.00 0.00 0.00 0.00 0.00
0.00 0.01 0.02 0.03 0.03 0.01 0.01 0.00 0.00 0.00 0.00 0.00 0.00 0.00 0.00 0.00 0.00 0.00 0.00 0.00 0.00 0.00
0.01 0.01 0.02 0.01 0.02 0.03 0.01 0.01 0.00 0.00 0.00 0.00 0.00 0.00 0.00 0.00 0.00 0.00 0.00 0.00 0.00 0.00
0.01 0.02 0.01 0.01 0.01 0.01 0.00 0.00 0.00 0.00 0.00 0.00 0.00 0.00 0.00 0.00 0.00 0.00 0.00 0.00 0.00 0.00
0.01 0.01 0.00 0.00 0.00 0.00 0.00 0.00 0.00 0.00 0.00 0.00 0.00 0.00 0.00 0.00 0.00 0.00 0.00 0.00 0.00 0.00
0.00 0.00 0.00 0.00 0.00 0.00 0.00 0.00 0.00 0.00 0.00 0.00 0.00 0.00 0.00 0.00 0.00 0.00 0.00 0.00 0.00 0.00
0.00 0.00 0.00 0.00 0.00 0.00 0.00 0.00 0.00 0.00 0.00 0.00 0.00 0.00 0.00 0.00 0.00 0.00 0.00 0.00 0.00 0.00
0.00 0.00 0.00 0.00 0.00 0.00 0.00 0.00 0.00 0.00 0.00 0.00 0.00 0.00 0.00 0.00 0.00 0.00 0.00 0.00 0.00 0.00
MSLP
1019.49 1020.22 1020.87 1021.51 1022.32 1022.97 1023.53 1024.25 1024.82 1025.25 1025.56 1026.01 1026.37 1026.86 1027.20 1027.50 1027.95 1028.14 1028.41 1028.62 1028.93 1029.24
1019.04 1019.63 1020.36 1021.12 1021.82 1022.47 1023.29 1024.03 1024.65 1025.17 1025.73 1026.27 1026.78 1027.26 1027.61 1028.11 1028.45 1028.72 1028.80 1028.93 1029.24 1029.52
1018.43 1019.17 1019.92 1020.67 1021.48 1022.25 1023.07 1023.90 1024.69 1025.36 1025.88 1026.52 1027.04 1027.38 1027.82 1028.39 1028.94 1029.15 1029.42 1029.46 1029.53 1029.82
1018.32 1018.95 1019.87 1020.65 1021.43 1022.09 1022.92 1023.74 1024.47 1025.16 1025.82 1026.34 1027.11 1027.82 1028.04 1028.66 1029.05 1029.39 1029.69 1029.75 1029.73 1030.06
1018.32 1018.88 1019.68 1020.60 1021.37 1022.05 1022.86 1023.76 1024.48 1025.28 1025.91 1026.79 1027.06 1027.69 1028.10 1028.46 1029.46 1029.45 1029.86 1030.07 1029.97 1030.16
1018.43 1019.24 1019.97 1020.72 1021.47 1022.15 1022.91 1023.88 1024.83 1025.58 1026.39 1026.83 1027.22 1027.72 1028.48 1028.77 1029.43 1029.47 1030.23 1030.02 1030.27 1030.32
1018.69 1019.28 1020.15 1020.98 1021.67 1022.54 1022.98 1023.73 1024.89 1025.94 1026.71 1027.37 1027.54 1027.69 1028.68 1029.00 1029.67 1029.76 1030.27 1030.20 1030.30 1030.27
1019.24 1019.77 1020.47 1021.51 1022.22 1023.15 1023.72 1024.42 1025.28 1025.95 1027.17 1027.69 1027.86 1027.94 1028.59 1029.30 1029.46 1030.02 1030.12 1030.17 1030.21 1030.08
1019.68 1020.28 1020.87 1021.73 1022.77 1023.94 1023.99 1025.21 1025.87 1026.40 1027.24 1027.79 1027.95 1027.80 1028.57 1029.05 1029.54 1029.83 1030.11 1030.41 1030.35 1030.09
1019.84 1020.87 1021.54 1022.45 1022.62 1024.37 1024.98 1025.44 1026.50 1026.76 1027.41 1027.89 1027.96 1028.43 1028.55 1029.09 1029.77 1029.93 1030.29 1030.38 1030.29 1030.05
1019.91 1021.20 1021.87 1022.69 1023.48 1024.13 1025.25 1025.75 1026.53 1027.31 1027.70 1028.18 1028.23 1028.38 1028.83 1029.33 1029.92 1030.26 1030.30 1030.27 1030.27 1030.14
1020.34 1021.22 1021.95 1023.13 1023.84 1024.62 1025.47 1025.99 1026.96 1027.74 1028.26 1028.32 1028.57 1028.71 1029.13 1029.71 1030.07 1030.23 1030.25 1030.22 1030.21 1030.08
1020.42 1021.35 1022.32 1023.27 1024.11 1025.13 1025.95 1026.74 1027.53 1028.14 1028.38 1028.75 1029.06 1029.05 1029.33 1029.82 1030.10 1030.20 1030.13 1030.20 1030.04 1029.88
1020.85 1021.71 1022.73 1023.69 1024.60 1025.47 1026.28 1027.00 1027.67 1028.21 1028.87 1029.23 1029.39 1029.49 1029.42 1029.55 1029.91 1029.90 1030.16 1030.17 1030.02 1029.77
Thickness
5638 5634 5632 5630 5625 5621 5618 5613 5608 5605 5602 5599 5596 5592 5590 5587 5581 5577 5573 5567 5561 5553
5636 5634 5630 5626 5623 5619 5613 5607 5601 5598 5594 5590 5586 5582 5578 5574 5569 5564 5560 5555 5549 5542
5635 5632 5628 5623 5618 5613 5606 5600 5594 5590 5586 5581 5576 5572 5569 5563 5556 5551 5545 5541 5536 5528
5629 5626 5620 5616 5611 5607 5600 5594 5589 5584 5579 5575 5568 5561 5558 5551 5546 5540 5533 5528 5523 5515
5620 5619 5614 5608 5604 5598 5593 5586 5581 5575 5570 5562 5559 5553 5547 5543 5532 5529 5521 5515 5510 5503
5612 5607 5603 5600 5595 5591 5585 5577 5569 5563 5556 5552 5548 5542 5534 5529 5521 5516 5506 5503 5496 5490
5602 5600 5594 5590 5585 5579 5576 5570 5560 5551 5544 5538 5535 5531 5521 5516 5507 5503 5495 5489 5482 5478
5588 5586 5583 5576 5571 5564 5560 5554 5546 5540 5529 5523 5520 5517 5511 5503 5498 5489 5482 5476 5471 5467
5573 5572 5568 5564 5556 5546 5546 5536 5530 5525 5517 5512 5507 5504 5496 5491 5484 5477 5469 5462 5458 5454
5561 5555 5552 5546 5546 5532 5527 5523 5514 5511 5504 5499 5496 5487 5483 5477 5470 5463 5455 5450 5445 5439
5550 5542 5538 5533 5528 5523 5514 5510 5503 5496 5491 5485 5481 5475 5469 5462 5454 5447 5442 5437 5431 5426
5535 5530 5526 5518 5512 5507 5501 5497 5489 5481 5474 5471 5465 5460 5452 5446 5439 5433 5428 5422 5417 5411
5523 5517 5511 5504 5498 5491 5484 5478 5470 5463 5459 5455 5448 5443 5437 5430 5424 5419 5414 5407 5400 5394
5506 5501 5494 5488 5481 5475 5468 5462 5454 5449 5441 5436 5433 5427 5421 5416 5411 5406 5398 5391 5386 5381